Regional Weather Roundup
Issued by NWS Cleveland, OH

Home | Current Version | Previous Version | Text Only | Print | Product List | Glossary Off
Versions: 1 2 3 4 5 6 7 8 9 10 11 12 13 14 15 16 17 18 19 20 21 22 23 24 25 26 27 28 29 30 31 32 33 34 35 36 37 38 39 40 41 42 43 44 45 46 47 48 49 50

000
ASUS41 KCLE 292312
RWRCLE
OHIO REGIONAL WEATHER ROUNDUP
NATIONAL WEATHER SERVICE WILMINGTON, OH
700 PM EDT FRI APR 29 2016

NOTE: "FAIR" INDICATES FEW OR NO CLOUDS BELOW 12,000 FEET WITH NO
SIGNIFICANT WEATHER AND/OR OBSTRUCTIONS TO VISIBILITY.

OHZ001>008-015>018-024>027-034-035-043-044-300000-
   NORTHWEST OHIO

CITY           SKY/WX    TMP DP  RH WIND       PRES   REMARKS
DEFIANCE       CLOUDY    57  42  57 CALM      30.10R
FINDLAY        CLOUDY    51  39  63 NE10      30.09R
TOLEDO EXPRESS CLOUDY    49  39  68 E7        30.11R
TOLEDO EXEC    CLOUDY    48  39  71 NE7       30.13R
LIMA           CLOUDY    52  46  80 N6        30.08S
$$

OHZ009>014-019>023-028>033-038-089-300000-
   NORTHEAST OHIO

CITY           SKY/WX    TMP DP  RH WIND       PRES   REMARKS
CLE-HOPKINS    CLOUDY    45  39  79 N8        30.14R
CLE-LAKEFRONT  LGT RAIN  45  40  82 N13       30.11R
CUY CO. ARPT   CLOUDY    45  41  87 NE9       30.10R
LORAIN-ELYRIA  CLOUDY    44  37  76 N6        30.12R
ASHTABULA      CLOUDY    43  36  76 N6        30.08R
AKRON-CANTON   CLOUDY    47  42  83 NW9       30.07R
WOOSTER        CLOUDY    45  42  89 N9        30.09R
MANSFIELD      CLOUDY    46  41  82 NW6       30.09R
YOUNGSTOWN     CLOUDY    45  42  89 NW10      30.05S
$$

OHZ042-051>053-060>062-070>072-077>081-300000-
  SOUTHWEST OHIO

CITY           SKY/WX    TMP DP  RH WIND       PRES   REMARKS
CINC-COVINGTON CLOUDY    64  48  56 W8        30.03R
CINC-LUNKEN    FAIR      65  49  56 N8        30.03R
HAMILTON       FAIR      64  50  60 N5        30.04R
DAYTON         CLOUDY    57  47  69 N12       30.07R
WRIGHT-PAT AFB FAIR      59  49  70 NW7       30.06R
DAYTON GENERAL FAIR      60  48  64 N8        30.04R
WILMINGTON     FAIR      59  50  72 N10       30.04R
$$

OHZ036-037-039>041-045>050-054>059-063>069-073>076-082>088-300000-
  CENTRAL AND SOUTHEAST OHIO

CITY           SKY/WX    TMP DP  RH WIND       PRES   REMARKS
COLUMBUS       CLOUDY    56  47  71 N10       30.05R
OSU AIRPORT    FAIR      54  47  77 N13       30.06R
BOLTON FIELD   MOSUNNY   57  48  72 N10       30.06R
RICKENBACK AFB PTSUNNY   58  48  70 N10       30.04R
NEWARK         PTSUNNY   56  46  69 N8        30.06R
MARION         CLOUDY    50  43  77 NE13      30.10R
LANCASTER      PTSUNNY   58  49  72 N10       30.05R
ZANESVILLE     FAIR      57  47  69 N10       30.06R
NEW PHILLY     CLOUDY    52  44  74 NW10      30.07R
$$




USA.gov is the U.S. government's official web portal to all federal, state and local government web resources and services.